Regional Weather Roundup
Issued by NWS Burlington, VT

Current Version | Previous Version | Text Only | Print | Product List | Glossary Off
Versions: 1 2 3 4 5 6 7 8 9 10 11 12 13 14 15 16 17 18 19 20 21 22 23 24 25 26 27 28 29 30 31 32 33 34 35 36 37 38 39 40 41 42 43 44 45 46 47 48 49 50

000
ASUS41 KBTV 310010
RWRBTV
VERMONT REGIONAL WEATHER ROUNDUP
NATIONAL WEATHER SERVICE BURLINGTON VT
800 PM EDT THU JUL 30 2015

NOTE: "FAIR" INDICATES FEW OR NO CLOUDS BELOW 12,000 FEET WITH NO
SIGNIFICANT WEATHER AND/OR OBSTRUCTIONS TO VISIBILITY.

* THESE REPORTS ARE NOT UNDER NWS QUALITY CONTROL AND/OR DO NOT
  REPORT WEATHER SUCH AS PRECIPITATION AND FOG.

VTZ001>019-310100-
_____VERMONT_____


CITY           SKY/WX    TMP DP  RH WIND       PRES   REMARKS
BURLINGTON     PTCLDY    79  70  74 S9        29.72S
6HR MIN TEMP:  74; 6HR MAX TEMP:  81; 6HR PCP:  0.04;

MONTPELIER     CLEAR     73  66  78 SW8       29.81R
6HR MIN TEMP:  71; 6HR MAX TEMP:  77; 6HR PCP:  0.85;

MORRISVILLE    CLEAR     76  68  76 CALM      29.76R
6HR MIN TEMP:  75; 6HR MAX TEMP:  79; 6HR PCP:  0.04;

ST. JOHNSBURY*   N/A     73  69  87 MISG      29.74R
6HR MIN TEMP:  72; 6HR MAX TEMP:  82; 6HR PCP:  0.14;

LYNDONVILLE*   FAIR      70  67  92 CALM      29.79R
6HR MIN TEMP:  69; 6HR MAX TEMP:  78;

MIDDLEBURY*    FAIR      76  74  95 SE3       29.76R
6HR MIN TEMP:  73; 6HR MAX TEMP:  80; 6HR PCP:  0.12;

SPRINGFIELD    PTCLDY    74  72  93 NE5       29.78R
6HR MIN TEMP:  74; 6HR MAX TEMP:  84; 6HR PCP:  0.23;

HIGHGATE*      FAIR      76  71  82 S3        29.71R
6HR MIN TEMP:  72; 6HR MAX TEMP:  82;

NEWPORT*       FAIR      71  68  89 CALM      29.76R
6HR MIN TEMP:  70; 6HR MAX TEMP:  76;

BENNINGTON     CLEAR     77  61  57 SW7       29.81R
6HR MIN TEMP:  76; 6HR MAX TEMP:  82; 6HR PCP:  0.07;

SUTTON*          N/A     66 N/A N/A MISG        N/A

_____LAKE CHAMPLAIN_____


CITY           SKY/WX    TMP DP  RH WIND       PRES   REMARKS

$$

NYZ007-026>031-035-052-083-310100-
_____NORTHERN NEW YORK_____


CITY           SKY/WX    TMP DP  RH WIND       PRES   REMARKS
PLATTSBURGH    CLEAR     73  67  81 CALM      29.71R
6HR MIN TEMP:  73; 6HR MAX TEMP:  85;

SARANAC LAKE   CLEAR     72  59  63 W7        29.80R
6HR MIN TEMP:  72; 6HR MAX TEMP:  79;

MASSENA        CLEAR     79  63  57 SW13      29.71R
6HR MIN TEMP:  79; 6HR MAX TEMP:  85;

OGDENSBURG*    PTCLDY    77  63  61 SW7       29.73R
WATERTOWN      MOCLDY    77  60  55 W12G24    29.76S
6HR MIN TEMP:  77; 6HR MAX TEMP:  83;

FT DRUM        CLEAR     77  58  51 W13G22    29.77S
6HR MIN TEMP:  77; 6HR MAX TEMP:  83;

ALBANY         MOCLDY    80  60  50 W7        29.80R
6HR MIN TEMP:  79; 6HR MAX TEMP:  86; 6HR PCP:  0.16;

GLENS FALLS    CLEAR     75  63  66 SW5       29.77R
6HR MIN TEMP:  74; 6HR MAX TEMP:  85; 6HR PCP:  0.26;


$$
NHZ002-005-011-310100-
_____NEW HAMPSHIRE_____


CITY           SKY/WX    TMP DP  RH WIND       PRES   REMARKS
LEBANON        CLEAR     75  72  90 S5        29.76R
6HR MIN TEMP:  73; 6HR MAX TEMP:  85; 6HR PCP:  0.38;

KEENE          MOCLDY    75  68  78 SW5       29.79S
6HR MIN TEMP:  73; 6HR MAX TEMP:  88; 6HR PCP:  0.26;

MT WASHINGTON  FOG       55  55 100 W44G53      N/A  VSB 0
6HR MIN TEMP:  53; 6HR MAX TEMP:  60; 6HR PCP:  0.48;

PLYMOUTH       FAIR      73  73 100 CALM      29.76R FOG
6HR MIN TEMP:  73; 6HR MAX TEMP:  86; 6HR PCP:  0.17;

WHITEFIELD     PTCLDY    72  69  90 CALM      29.77S
6HR MIN TEMP:  72; 6HR MAX TEMP:  84; 6HR PCP:  0.11;


$$

_____REGIONAL QUEBEC LOCATIONS_____


CITY           SKY/WX    TMP DP  RH WIND       PRES   REMARKS
MONTREAL       MOCLDY    81  66  61 W9        29.67S
QUEBEC CITY    CLOUDY    72  70  94 CALM      29.64S
SHERBROOKE     CLEAR     72  70  94 S5        29.71F

_____REGIONAL ONTARIO LOCATIONS_____


CITY           SKY/WX    TMP DP  RH WIND       PRES   REMARKS
OTTAWA         PTCLDY    81  55  41 W16G24    29.70R

______KEY______
VSB  - VISIBILITY IN MILES
WCI  - WIND CHILL INDEX
HX   - HEAT INDEX
$$
NNNN


USA.gov is the U.S. government's official web portal to all federal, state and local government web resources and services.